Weather History for Iquique, Chile

Change the Weather History Date:

Saturday, February 2, 2013

  Actual Average Record
Temperature  
Mean Temperature 70 °F -  
Max Temperature 75 °F 75 °F 80 °F (1998)
Min Temperature 65 °F 65 °F 62 °F (1997)
Cooling Degree Days 5    
Growing Degree Days 20 (Base 50)    
Moisture  
Dew Point 59 °F    
Average Humidity 65    
Maximum Humidity 78    
Minimum Humidity 50    
Precipitation  
Precipitation 0.00 in 0.00 in - ()
Sea Level Pressure  
Sea Level Pressure 29.95 in    
Wind  
Wind Speed 10 mph ()    
Max Wind Speed 22 mph    
Max Gust Speed -    
Visibility 12.0 miles    
Events      
Averages and records for this station are not official NWS values.
T = Trace of Precipitation, MM = Missing Value Source: Averaged Metar Reports

Daily Weather History Graph

Daily Weather History Graph

Search for Another Location

Airport:

Trip Planner

Search our weather history database for the weather conditions in past years. The results will help you decide how hot, cold, wet, or windy it might be!

Date:

Astronomy

Feb. 02, 2013 Rise Set
Actual Time 7:24 AM CLST 8:23 PM CLST
Civil Twilight 7:01 AM CLST 8:47 PM CLST
Nautical Twilight 6:33 AM CLST 9:14 PM CLST
Astronomical Twilight 6:05 AM CLST 9:42 PM CLST
Moon 12:02 AM CLST (2/2) 1:07 PM CLST (2/2)
Length of Visible Light 13h 45m
Length of Day
12h 58m
Waning Gibbous, 61% of the Moon is Illuminated
Feb 2
Waning Gibbous
Feb 3
Last Quarter
Feb 10
New
Feb 17
First Quarter
Feb 25
Full

Hourly Weather History & Observations

Time (CLST) Temp. Dew Point Humidity Pressure Visibility Wind Dir Wind Speed Gust Speed Precip Events Conditions
12:00 AM 71 °F 60 °F 60% 29.98 in 12 mi SSW 9.2 mph - -  
12:00 AM 71.6 °F 60.8 °F 69% 29.98 in - SSW 9.2 mph - N/A   Clear
1:00 AM 69.8 °F 59.0 °F 68% 29.98 in - South 9.2 mph - N/A   Clear
2:00 AM 68.0 °F 60.8 °F 78% 29.95 in - SSW 6.9 mph - N/A   Clear
3:00 AM 68 °F 59 °F 66% 29.96 in 12 mi SSW 6.9 mph - -  
3:00 AM 68.0 °F 59.0 °F 73% 29.95 in - SSW 6.9 mph - N/A   Clear
4:00 AM 68.0 °F 57.2 °F 68% 29.95 in - South 6.9 mph - N/A   Clear
5:00 AM 68.0 °F 55.4 °F 64% 29.92 in - South 9.2 mph - N/A   Clear
6:00 AM 67 °F 54 °F 55% 29.94 in 12 mi South 5.8 mph - -  
6:00 AM 68.0 °F 55.4 °F 64% 29.95 in - South 5.8 mph - N/A   Clear
7:00 AM 66.2 °F 57.2 °F 73% 29.95 in - SSW 4.6 mph - N/A   Clear
8:00 AM 68.0 °F 55.4 °F 64% 29.95 in - South 3.5 mph - N/A   Clear
9:00 AM 70 °F 57 °F 54% 29.96 in 12 mi SSE 3.5 mph - -  
9:00 AM 69.8 °F 57.2 °F 64% 29.95 in - SSE 3.5 mph - N/A   Clear
10:00 AM 71.6 °F 59.0 °F 64% 29.98 in - SSW 11.5 mph - N/A   Clear
11:00 AM 73.4 °F 59.0 °F 61% 29.98 in - SSW 13.8 mph - N/A   Clear
12:00 PM 74 °F 59 °F 50% 29.98 in 12 mi SSW 19.6 mph - -   Clear
12:00 PM 73.4 °F 59.0 °F 61% 29.98 in - SSW 19.6 mph - N/A   Clear
1:00 PM 75.2 °F 59.0 °F 57% 29.95 in - SSW 19.6 mph - N/A   Clear
2:00 PM 73.4 °F 60.8 °F 65% 29.95 in - SSW 21.9 mph - N/A   Clear
3:00 PM 74 °F 62 °F 57% 29.95 in 12 mi SSW 21.9 mph - -   Clear
3:00 PM 75.2 °F 62.6 °F 65% 29.95 in - SSW 21.9 mph - N/A   Clear
4:00 PM 73.4 °F 62.6 °F 69% 29.92 in - SSW 20.7 mph - N/A   Clear
5:00 PM 75.2 °F 62.6 °F 65% 29.92 in - SSW 20.7 mph - N/A   Clear
6:00 PM 75 °F 61 °F 53% 29.88 in 12 mi SSW 20.7 mph - -   Clear
6:00 PM - - N/A% 29.89 in - SSW 20.7 mph - N/A   Unknown
7:00 PM 73.4 °F 62.6 °F 69% 29.89 in - SSW 20.7 mph - N/A   Clear
8:00 PM 71.6 °F 62.6 °F 73% 29.89 in - SSW 17.3 mph - N/A   Clear
9:00 PM 71 °F 61 °F 62% 29.92 in 12 mi SSW 13.8 mph - -   Clear
9:00 PM 71.6 °F 60.8 °F 69% 29.92 in - SSW 13.8 mph - N/A   Clear
10:00 PM 71.6 °F 60.8 °F 69% 29.95 in - SSW 11.5 mph - N/A   Clear
11:00 PM 69.8 °F 60.8 °F 73% 29.98 in - South 8.1 mph - N/A   Clear